Location: Staunton
(38.1490°N, 79.0720°W)
Time: 17:46:54
(UTC-04:00)

ISS - Pass Details

Date: 23 March 2017
Orbit: 399 x 409 km, 51.6° (Epoch: 26 March)

Event Time Altitude Azimuth Distance (km) Brightness Sun altitude
Exits shadow 05:40:51 63° 316° (NW) 461 -3.8 -19.0°
Maximum altitude 05:41:20 87° 34° (NE) 413 -3.9 -18.9°
Drops below altitude 10° 05:44:37 10° 129° (SE) 1,465 -0.6 -18.3°
Sets 05:46:42 0° 130° (SE) 2,322 0.5 -17.9°
